Flag for Germany Weather past 2 weeks in Gera, Thuringia, Germany

Now
40 °F

Passing clouds.


Feels Like: 36 °F
Forecast: 46 / 67 °F
Wind: 5 mph from South

Location: Gera-Leumnitz

Current Time: May 28, 2015 at 5:10:02 AM

Latest Report: May 28, 2015 at 5:00 AM


Visibility: 15 mi

Pressure: 30.12 "Hg

Humidity: 88%

Dew point: 36 °F

Location of GeraLocation

Historic Weather in Gera — Graph

°F

Gera temperature yesterday

Maximum temperature yesterday: 53 °F (at 5:00 PM)
Minimum temperature yesterday: 43 °F (at 6:00 AM)
Average temperature yesterday: 49 °F

Past Weeks' High & Low Weather Summary

 TemperatureHumidityPressure
High69 °F (May 18, 5:00 PM)96% (May 21, 12:00 AM)30.37 "Hg (May 21, 12:00 AM)
Low37 °F (May 22, 5:00 AM)26% (May 19, 5:00 PM)29.67 "Hg (May 18, 8:00 PM)
Average53 °F67%30.05 "Hg
* Reported May 13 4:00 AM — May 28 4:00 AM, Gera, Weather by CustomWeather, © 2015

Note: Actual official high and low records may vary slightly from our data, if they occured in-between our weather recording intervals... More about our weather records

Advertising

Gera weather history for previous 24 hours

 ConditionsComfort  
Time TempWeatherWind HumidityBarometerVisibility
4:00 AM
Thu, May 28
40 °FOvercast.5 mph89%30.13 "Hg15 mi
3:00 AM42 °FOvercast.3 mph86%30.14 "Hg19 mi
2:00 AM44 °FClear.3 mph80%30.14 "Hg22 mi
1:00 AM47 °FOvercast.2 mph79%30.15 "Hg28 mi
12:00 AM49 °FOvercast.3 mph72%30.15 "Hg31 mi
11:00 PM
Wed, May 27
49 °FOvercast.3 mph70%30.16 "Hg37 mi
10:00 PM49 °FOvercast.2 mph69%30.17 "Hg34 mi
9:00 PM51 °FOvercast.3 mph63%30.16 "Hg37 mi
8:00 PM51 °FOvercast.3 mph62%30.17 "Hg37 mi
7:00 PM52 °FOvercast.5 mph62%30.18 "Hg37 mi
6:00 PM52 °FOvercast.6 mph62%30.18 "Hg37 mi
5:00 PM53 °FOvercast.6 mph58%30.18 "Hg34 mi
4:00 PM53 °FOvercast.5 mph62%30.18 "Hg34 mi
3:00 PM52 °FOvercast.5 mph64%30.19 "Hg31 mi
2:00 PM53 °FOvercast.6 mph58%30.19 "Hg34 mi
1:00 PM52 °FOvercast.6 mph62%30.19 "Hg34 mi
12:00 PM52 °FOvercast.6 mph60%30.20 "Hg34 mi
11:00 AM50 °FOvercast.6 mph59%30.21 "Hg25 mi
10:00 AM50 °FPartly sunny.3 mph60%30.20 "Hg25 mi
9:00 AM47 °FOvercast.5 mph77%30.21 "Hg22 mi
8:00 AM45 °FOvercast.3 mph81%30.21 "Hg19 mi
7:00 AM44 °FOvercast.2 mph83%30.21 "Hg19 mi
6:00 AM43 °FScattered clouds.2 mph85%30.20 "Hg19 mi
5:00 AM44 °FPassing clouds.5 mph86%30.19 "Hg18 mi
Weather by CustomWeather, © 2015

See weather overviewHow to use our weather pages